Find Starlink 3198

NORAD ID: 49763 Int'l Des: 2021-115 Owner: SPXS Country: US Constellation: starlink operational
LEOCIRCULAR

リアルタイム位置

3D地球を読み込み中...

Starlink 3198について

説明を読み込み中...

次回通過

Passes for default location (London). Set your location on the main map for personalized predictions.

高度履歴

Loading altitude history...

軌道要素

1 49763U 21115AR 26132.22235490 .00000404 00000-0 43457-4 0 9995
2 49763 53.2168 213.9122 0001127 84.7156 275.3965 15.08837734245271
Epoch: May 12, 2026 • Age: 11 hours

現在のステータス

高度 555.9 km
速度 7.58 km/s
衛星直下点 -45.48°S, 49.49°E
打ち上げ日 Dec 2, 2021
運用期間 4.4 years
タイプ internet

技術仕様

分類 Payload
質量 290.00 kg
乾燥質量 270.00 kg
総質量 290.00 kg
長さ 0.20 m
直径 2.80 m
スパン 9.00 m
形状 Box + pan
製造者 SPXS
バスタイプ Starlink
フェーズステータス In Orbit
所有者/国 SPXS/US

Most Searched